Location: Caltech
(34.1382°N, 118.1253°W)
Time: 04:41:54
(UTC-07:00)

FENGYUN 3A - Visible Passes

Search period start: 18 September 2014 00:00
Search period end: 28 September 2014 00:00
Orbit: 820 x 834 km, 98.5° (Epoch: 18 September)

Date Brightness Start Highest point End Pass type
(mag) Time Alt. Az. Time Alt. Az. Time Alt. Az.
18 Sep 5.2 21:03:55 23° NNE 21:03:55 23° NNE 21:06:22 10° N visible
18 Sep 6.3 22:45:25 14° NW 22:45:25 14° NW 22:46:20 10° NW visible
19 Sep 5.4 20:45:06 18° NE 20:45:06 18° NE 20:47:07 10° NNE visible
19 Sep 6.0 22:26:37 18° NW 22:26:37 18° NW 22:28:06 10° NNW visible
20 Sep 5.6 20:26:17 13° NE 20:26:17 13° NE 20:27:25 10° NNE visible
20 Sep 5.7 22:07:48 22° NNW 22:07:48 22° NNW 22:09:37 10° NNW visible
21 Sep 5.5 21:48:59 23° N 21:48:59 23° N 21:50:58 10° NNW visible
22 Sep 5.4 21:30:10 23° N 21:30:10 23° N 21:32:10 10° N visible
23 Sep 5.4 21:11:21 20° NNE 21:11:21 20° NNE 21:13:12 10° N visible
24 Sep 5.6 20:52:33 17° NNE 20:52:33 17° NNE 20:54:02 10° NNE visible
24 Sep 6.4 22:34:03 13° NW 22:34:03 13° NW 22:34:37 10° NNW visible
25 Sep 5.7 20:33:44 13° NE 20:33:44 13° NE 20:34:33 10° NNE visible
25 Sep 6.2 22:15:15 15° NNW 22:15:15 15° NNW 22:16:13 10° NNW visible
26 Sep 6.0 21:56:26 17° NNW 21:56:26 17° NNW 21:57:38 10° NNW visible
27 Sep 5.8 21:37:37 18° N 21:37:37 18° N 21:38:53 10° N visible
